Temp
69 69 69 70 72 72 73 72 73 73 73 74 74 74 73 73 73 72 71 81 81 81 82 83 82 82 82 82 82 81 81 81 81 81 81 81 81 81 81 81 81 81 80
68 69 69 70 70 71 72 73 72 72 71 72 73 73 73 72 73 72 72 72 81 81 80 82 82 82 82 82 82 82 82 81 81 81 81 81 80 80 80 80 80 80 80
70 71 70 70 71 70 72 72 73 72 72 72 71 73 73 73 72 71 72 71 73 81 81 82 82 81 82 82 82 82 81 81 81 81 80 80 80 80 80 80 80 80 80
72 71 70 70 71 71 70 72 71 72 70 70 70 71 72 72 72 71 72 72 72 77 80 81 81 81 82 82 82 82 81 81 80 80 80 80 80 80 80 79 80 79 79
73 71 70 70 71 70 70 72 72 71 70 71 72 72 71 71 72 74 72 73 73 75 77 80 80 81 82 83 82 82 81 81 80 80 80 79 80 80 79 79 79 79 79
73 71 70 70 70 70 70 70 71 71 71 70 74 73 70 71 71 72 72 74 72 74 74 76 78 79 81 82 82 82 82 81 80 80 80 79 79 79 79 79 78 78 78
73 71 70 70 70 69 69 71 71 71 70 71 69 69 68 70 71 71 72 72 72 74 73 72 77 77 78 80 81 81 82 81 81 80 80 79 79 79 78 78 78 78 78
72 72 71 70 70 69 69 71 71 69 69 68 68 66 64 68 69 71 71 73 72 74 73 73 76 76 76 77 79 81 81 81 81 81 80 79 79 78 78 77 77 77 78
72 72 72 70 71 70 69 70 71 69 68 70 71 68 64 63 64 68 69 70 72 73 75 76 74 74 75 75 78 79 79 79 80 81 81 80 79 78 78 78 77 77 77
73 72 72 71 71 71 71 70 74 70 70 69 69 71 69 67 64 63 67 68 69 72 73 74 76 75 76 75 77 78 78 78 79 80 81 81 80 79 79 78 78 77 77
73 73 72 72 70 71 72 72 72 71 70 70 69 68 68 67 67 65 64 65 68 70 73 72 76 76 78 77 75 77 77 77 77 79 80 80 80 80 80 79 79 78 78
71 72 73 72 72 72 71 72 72 72 71 71 69 68 66 65 64 65 64 65 65 70 71 71 72 74 78 77 79 78 77 77 77 77 78 79 80 80 81 81 80 80 79
71 71 72 72 72 72 72 72 72 72 72 71 71 69 69 68 68 66 65 63 63 68 68 70 70 72 76 78 79 79 79 76 75 75 75 76 77 78 79 80 81 81 81
73 73 73 72 72 73 73 72 72 72 72 72 72 71 70 69 69 67 65 63 63 64 67 69 70 70 70 71 73 77 77 75 74 73 73 73 74 76 77 78 78 79 79
75 74 73 73 73 73 73 73 72 72 72 72 72 72 71 71 69 69 68 66 66 63 63 67 68 69 69 70 72 73 73 74 73 72 72 72 72 73 74 75 75 76 76
74 73 74 73 73 73 73 73 72 72 71 72 73 72 71 71 71 69 69 68 67 66 63 67 68 68 70 74 73 72 73 73 72 71 71 70 71 72 72 73 73 74 74
75 74 74 73 73 73 73 72 72 72 72 71 72 72 72 73 72 70 70 70 69 67 66 67 68 67 69 69 71 71 72 72 72 70 70 70 70 70 71 71 71 72 72
75 75 75 74 73 73 73 73 72 74 72 71 72 72 71 74 72 71 69 70 70 70 68 67 69 69 67 69 68 68 71 77 74 74 71 70 69 69 68 68 69 69 69
71 71 72 72 73 73 73 73 73 73 73 72 72 72 72 72 71 71 71 70 70 71 69 68 68 69 69 69 69 67 68 72 76 76 72 70 69 68 68 67 66 65 64
69 69 70 70 70 72 72 72 72 72 72 73 72 72 72 72 71 71 69 70 72 70 68 68 67 68 69 70 67 67 68 67 69 78 77 73 71 69 68 66 66 65 63
69 68 69 69 69 72 74 70 70 71 71 71 72 72 72 73 72 71 71 71 70 69 68 68 67 66 66 67 67 69 67 69 71 72 72 71 70 69 69 67 70 69 66
67 67 66 67 67 74 67 68 69 68 68 68 68 69 71 72 72 70 68 69 70 70 69 68 71 66 68 68 68 67 67 66 67 70 70 69 70 70 70 69 69 67 65
64 64 65 65 65 66 65 66 69 66 65 66 66 67 69 76 71 69 69 69 68 67 69 71 69 69 69 68 68 68 67 67 66 70 69 68 67 68 72 71 67 66 65
61 61 62 63 63 66 64 64 66 64 64 65 66 66 66 67 68 68 67 66 67 69 69 69 68 71 71 73 69 70 68 67 68 69 70 68 68 68 69 69 67 67 65
59 60 61 61 61 63 62 61 63 62 63 63 65 66 66 66 64 63 64 62 63 65 70 66 65 66 66 65 67 68 68 65 67 69 69 69 74 69 69 75 72 66 64
60 61 61 61 63 61 58 58 60 61 59 61 62 64 64 61 59 58 60 60 60 62 64 65 65 66 65 67 65 66 68 67 67 68 73 68 71 67 66 69 75 71 68
MSLP
1018.34 1018.34 1018.47 1018.50 1018.41 1018.40 1018.36 1018.19 1018.00 1017.71 1017.77 1017.85 1017.79 1018.11 1017.98 1018.34 1018.95 1019.23 1019.45 1019.26 1019.87 1020.15 1020.24 1020.54 1020.87 1021.17 1021.40 1021.60 1021.77 1022.03 1022.16 1022.20 1022.39 1022.56 1022.83 1023.05 1023.20 1023.38 1023.51 1023.49 1023.53 1023.64 1023.66
1018.08 1018.11 1018.29 1018.35 1018.38 1018.38 1018.19 1018.05 1017.79 1017.63 1017.65 1017.75 1017.59 1017.95 1018.16 1018.42 1018.61 1019.00 1019.54 1019.65 1019.69 1019.92 1020.44 1020.36 1020.65 1021.07 1021.43 1021.60 1021.74 1021.93 1022.17 1022.27 1022.36 1022.59 1022.83 1023.03 1023.21 1023.39 1023.46 1023.54 1023.55 1023.59 1023.58
1017.80 1017.87 1018.03 1018.02 1018.02 1018.13 1018.05 1017.95 1017.71 1017.63 1017.77 1018.10 1018.02 1017.60 1017.73 1018.06 1018.41 1018.72 1019.23 1019.56 1019.63 1019.61 1019.91 1020.17 1020.39 1020.80 1021.09 1021.38 1021.65 1021.86 1022.04 1022.30 1022.38 1022.53 1022.77 1022.93 1023.06 1023.23 1023.33 1023.41 1023.48 1023.51 1023.52
1017.39 1017.60 1017.80 1017.93 1017.86 1017.96 1017.98 1017.79 1017.84 1017.87 1018.25 1018.23 1017.93 1017.87 1017.85 1017.98 1018.12 1018.47 1018.99 1019.36 1019.49 1019.49 1019.56 1019.79 1020.07 1020.49 1020.75 1021.00 1021.29 1021.63 1021.99 1022.13 1022.35 1022.44 1022.60 1022.76 1022.90 1023.00 1023.15 1023.22 1023.35 1023.45 1023.44
1017.01 1017.23 1017.49 1017.70 1017.75 1017.77 1017.79 1017.85 1017.94 1018.07 1017.93 1017.86 1017.63 1017.75 1017.91 1017.96 1018.01 1018.27 1018.44 1018.95 1019.19 1019.22 1019.23 1019.27 1019.63 1020.11 1020.41 1020.58 1020.83 1021.18 1021.55 1021.91 1022.13 1022.25 1022.41 1022.56 1022.75 1022.84 1022.93 1023.11 1023.15 1023.20 1023.28
1016.81 1017.17 1017.46 1017.47 1017.58 1017.48 1017.77 1017.95 1018.01 1017.93 1017.91 1017.94 1017.61 1017.67 1017.76 1017.81 1018.19 1018.01 1018.30 1018.63 1018.94 1018.94 1019.12 1019.20 1019.33 1019.69 1020.00 1020.18 1020.38 1020.75 1021.13 1021.37 1021.70 1021.99 1022.16 1022.32 1022.53 1022.71 1022.79 1022.85 1022.94 1022.97 1023.01
1016.61 1016.95 1017.35 1017.34 1017.33 1017.47 1017.68 1017.93 1017.98 1017.88 1017.97 1017.72 1018.01 1017.95 1017.99 1018.14 1018.35 1018.16 1018.05 1018.21 1018.54 1018.62 1018.89 1018.86 1018.94 1019.28 1019.56 1019.70 1019.91 1020.10 1020.47 1020.86 1021.15 1021.38 1021.73 1021.99 1022.17 1022.34 1022.59 1022.69 1022.73 1022.77 1022.80
1016.48 1016.73 1016.97 1017.21 1017.14 1017.38 1017.45 1017.71 1018.02 1018.25 1018.11 1017.98 1018.18 1018.38 1018.47 1018.60 1018.37 1018.46 1018.30 1018.35 1018.10 1018.07 1018.19 1018.49 1018.66 1018.74 1018.98 1019.25 1019.45 1019.62 1019.87 1020.10 1020.46 1020.79 1021.04 1021.37 1021.73 1021.97 1022.15 1022.32 1022.51 1022.56 1022.57
1016.35 1016.63 1016.71 1016.80 1016.81 1017.09 1017.31 1017.62 1017.83 1018.13 1018.20 1018.11 1017.85 1017.88 1018.21 1018.49 1018.57 1018.32 1018.12 1018.01 1017.75 1017.69 1017.49 1017.87 1018.35 1018.61 1018.74 1018.79 1018.98 1019.17 1019.33 1019.52 1019.71 1020.00 1020.28 1020.62 1021.00 1021.32 1021.61 1021.83 1021.98 1022.10 1022.19
1016.05 1016.25 1016.43 1016.53 1016.52 1016.76 1017.09 1017.43 1017.50 1017.73 1017.73 1017.89 1018.00 1017.67 1017.50 1018.22 1018.45 1018.65 1018.43 1018.23 1017.70 1017.47 1017.35 1017.34 1017.56 1017.95 1018.25 1018.52 1018.57 1018.49 1018.56 1018.83 1019.10 1019.34 1019.44 1019.76 1020.14 1020.50 1020.78 1021.02 1021.22 1021.43 1021.57
1015.64 1015.86 1016.08 1016.22 1016.41 1016.43 1016.79 1017.06 1017.23 1017.33 1017.28 1017.43 1017.71 1017.94 1017.98 1018.15 1018.24 1018.41 1018.58 1018.29 1017.89 1017.27 1017.00 1016.86 1016.74 1017.11 1017.40 1017.72 1017.94 1018.03 1018.05 1017.91 1018.17 1018.47 1018.73 1018.81 1019.07 1019.49 1019.85 1020.13 1020.39 1020.65 1020.88
1015.48 1015.46 1015.72 1015.93 1015.84 1016.00 1016.26 1016.58 1016.71 1016.86 1016.82 1016.95 1017.19 1017.50 1017.73 1018.05 1018.25 1018.36 1018.46 1018.23 1018.04 1017.50 1017.05 1016.77 1016.64 1016.41 1016.53 1016.67 1016.76 1016.85 1017.28 1017.66 1017.69 1017.87 1018.16 1018.28 1018.39 1018.59 1018.85 1019.09 1019.30 1019.58 1019.89
1015.20 1015.21 1015.37 1015.71 1015.76 1015.58 1015.63 1016.02 1016.38 1016.50 1016.49 1016.64 1016.73 1017.06 1017.11 1017.27 1017.51 1017.86 1018.06 1018.12 1017.92 1017.29 1016.94 1016.61 1016.44 1016.13 1015.99 1015.99 1015.93 1016.06 1016.31 1016.69 1017.24 1017.51 1017.44 1017.59 1017.68 1017.81 1017.95 1018.22 1018.44 1018.57 1018.83
1014.77 1014.84 1015.00 1015.07 1015.10 1015.15 1015.33 1015.57 1016.04 1016.08 1016.11 1016.27 1016.36 1016.51 1016.57 1016.71 1017.05 1017.33 1017.57 1017.90 1018.02 1017.60 1016.93 1016.25 1016.25 1015.99 1015.99 1015.75 1015.64 1015.67 1015.59 1015.68 1016.00 1016.49 1016.82 1017.10 1017.08 1017.10 1017.31 1017.45 1017.71 1017.94 1018.10
1014.15 1014.43 1014.54 1014.74 1014.84 1015.01 1015.21 1015.41 1015.71 1015.85 1015.90 1015.90 1016.04 1016.09 1016.25 1016.22 1016.47 1016.72 1016.87 1017.05 1017.31 1017.61 1017.08 1016.10 1016.15 1015.54 1015.40 1015.56 1015.57 1015.61 1015.49 1015.17 1015.22 1015.42 1015.81 1016.03 1016.28 1016.40 1016.46 1016.79 1016.99 1017.23 1017.38
1013.77 1014.14 1014.23 1014.51 1014.64 1014.69 1014.81 1015.08 1015.35 1015.45 1015.62 1015.65 1015.71 1015.79 1015.93 1016.05 1016.15 1016.33 1016.38 1016.47 1016.65 1016.88 1016.99 1016.13 1015.55 1015.22 1015.08 1015.00 1014.95 1014.95 1015.08 1015.07 1014.87 1014.69 1014.68 1014.96 1015.28 1015.54 1015.55 1015.75 1016.08 1016.42 1016.65
1013.73 1013.77 1014.01 1014.29 1014.42 1014.57 1014.62 1014.69 1014.83 1014.99 1015.22 1015.33 1015.40 1015.48 1015.54 1015.64 1015.73 1015.78 1015.90 1015.87 1015.92 1016.35 1016.51 1015.87 1015.46 1014.99 1014.98 1014.74 1014.57 1014.54 1014.51 1014.62 1014.51 1014.06 1014.02 1013.94 1014.30 1014.47 1014.71 1014.84 1015.15 1015.45 1015.66
1013.93 1013.98 1014.04 1014.11 1014.17 1014.28 1014.43 1014.51 1014.61 1014.55 1014.79 1015.01 1014.99 1015.12 1015.24 1015.08 1015.30 1015.38 1015.54 1015.64 1015.63 1015.58 1015.91 1015.78 1015.28 1014.99 1014.85 1014.25 1014.23 1014.27 1014.20 1013.89 1013.72 1013.41 1013.24 1013.37 1013.49 1013.59 1013.84 1014.11 1014.34 1014.56 1014.78
1014.33 1014.27 1014.17 1014.17 1014.12 1014.09 1014.08 1014.04 1014.18 1014.27 1014.38 1014.48 1014.51 1014.69 1014.77 1014.84 1015.02 1015.02 1015.04 1015.15 1015.00 1014.93 1015.19 1015.25 1015.06 1014.62 1014.37 1014.27 1014.22 1014.06 1013.79 1013.52 1013.15 1012.72 1012.57 1012.53 1012.61 1012.74 1012.84 1013.05 1013.41 1013.73 1013.94
1014.63 1014.58 1014.50 1014.41 1014.21 1014.08 1013.96 1013.93 1013.90 1013.95 1014.04 1014.08 1014.06 1014.15 1014.29 1014.41 1014.50 1014.56 1014.82 1014.62 1014.46 1014.42 1014.53 1014.72 1014.67 1014.49 1014.27 1013.91 1014.07 1014.09 1013.53 1012.96 1012.64 1011.97 1011.71 1011.44 1011.58 1011.91 1012.07 1012.35 1012.59 1012.86 1012.98
1014.69 1014.63 1014.59 1014.45 1014.33 1014.15 1014.06 1013.97 1013.89 1013.87 1013.89 1013.91 1013.80 1013.84 1013.85 1013.86 1013.83 1013.82 1014.05 1013.92 1013.99 1014.01 1014.01 1014.12 1014.30 1014.20 1014.10 1014.03 1013.91 1013.37 1013.36 1012.82 1012.24 1011.98 1011.75 1011.56 1011.59 1011.43 1011.52 1011.63 1011.72 1011.87 1011.93
1014.78 1014.69 1014.74 1014.72 1014.60 1014.41 1014.44 1014.29 1014.19 1014.12 1014.04 1013.98 1013.92 1013.74 1013.68 1013.56 1013.48 1013.44 1013.54 1013.62 1013.64 1013.65 1013.63 1013.65 1013.53 1013.57 1013.30 1013.21 1013.14 1013.02 1012.99 1012.93 1012.46 1011.23 1011.45 1011.21 1011.11 1011.13 1011.00 1011.02 1011.05 1011.36 1011.21
1015.28 1015.18 1015.07 1014.97 1014.92 1014.76 1014.57 1014.43 1014.34 1014.29 1014.28 1014.13 1013.96 1013.81 1013.75 1013.61 1013.56 1013.40 1013.20 1013.09 1012.97 1012.84 1012.90 1012.94 1012.88 1012.72 1012.51 1012.52 1012.51 1012.54 1012.50 1012.28 1011.98 1011.13 1011.34 1011.07 1010.88 1010.83 1010.23 1010.21 1010.32 1010.41 1010.25
1015.65 1015.51 1015.33 1015.27 1015.11 1014.78 1014.55 1014.42 1014.27 1014.31 1014.27 1014.09 1013.94 1013.78 1013.65 1013.44 1013.24 1013.15 1013.07 1012.99 1012.82 1012.54 1012.25 1012.15 1012.19 1011.93 1011.67 1011.48 1011.64 1011.63 1011.75 1011.84 1011.32 1010.76 1010.69 1010.60 1010.25 1009.90 1009.57 1009.34 1009.29 1009.25 1009.17
1015.69 1015.47 1015.34 1015.16 1015.11 1014.79 1014.64 1014.54 1014.39 1014.37 1014.31 1014.16 1013.87 1013.61 1013.48 1013.26 1013.13 1013.32 1013.26 1013.14 1012.81 1012.41 1011.66 1011.44 1011.28 1011.09 1010.85 1010.85 1010.89 1011.29 1011.43 1011.49 1010.97 1010.33 1009.97 1010.03 1009.41 1009.28 1009.04 1008.58 1008.16 1007.99 1007.98
1015.43 1015.39 1015.27 1014.96 1014.82 1015.14 1015.19 1014.86 1014.47 1014.37 1014.38 1014.19 1013.82 1013.56 1013.43 1013.45 1013.44 1013.42 1013.55 1013.32 1012.91 1012.35 1011.87 1011.36 1011.07 1010.75 1010.54 1010.30 1010.11 1010.46 1010.51 1010.69 1010.45 1009.80 1009.16 1009.60 1008.97 1009.15 1008.68 1007.47 1007.14 1007.07 1007.25
Wind_Speed
4 3 3 2 3 3 3 4 4 5 4 5 5 6 7 6 6 3 2 17 18 18 19 15 14 13 13 13 13 12 12 11 11 11 10 9 8 7 7 7 6 5 4
4 4 3 3 3 3 3 4 3 3 1 2 4 4 6 4 5 6 3 5 19 19 16 16 14 15 15 14 13 13 12 12 11 12 10 9 8 8 7 8 6 6 5
5 5 4 4 3 3 5 3 2 2 1 2 5 3 3 5 4 7 5 4 7 20 19 17 15 17 17 16 15 14 13 12 13 12 10 11 10 9 9 9 8 7 6
6 5 4 4 2 0 3 4 2 1 2 4 4 3 5 5 7 5 4 5 5 6 15 18 16 18 19 19 16 14 13 13 13 12 11 12 12 11 11 10 9 8 8
6 5 4 3 2 1 3 2 2 2 1 1 0 2 3 3 4 2 4 7 6 7 6 16 17 18 21 21 19 17 15 14 14 13 13 13 13 13 12 11 11 10 9
6 4 3 3 2 1 3 2 1 1 1 2 3 1 1 2 3 6 7 6 5 5 6 8 9 11 20 21 20 19 18 17 15 15 15 15 14 14 14 13 12 11 11
5 5 4 4 3 2 2 4 0 2 2 1 2 3 2 1 5 5 4 5 4 6 6 6 7 6 9 21 21 20 20 20 18 17 17 15 15 15 14 14 12 12 12
6 4 5 5 5 2 3 3 1 1 1 3 1 2 2 2 1 2 2 5 9 6 7 7 8 10 9 9 14 20 20 21 21 20 19 18 17 16 15 14 14 14 14
5 5 5 5 4 3 3 3 3 4 2 1 2 4 2 3 1 1 1 3 4 6 6 8 7 8 9 8 13 16 21 19 21 22 21 20 19 18 18 17 16 15 15
5 6 6 5 5 4 4 3 3 3 3 3 1 1 2 2 2 1 2 3 4 4 7 6 8 9 10 8 14 17 20 21 23 23 23 22 21 21 20 20 19 18 17
5 6 6 6 6 4 4 5 4 4 3 3 2 2 2 2 1 1 1 2 1 3 3 5 8 8 11 9 8 12 20 23 25 26 25 24 24 23 23 22 20 19 19
4 6 6 5 5 5 5 5 5 5 5 3 3 3 4 3 3 2 2 3 2 3 2 3 5 7 8 10 14 19 19 21 23 24 24 24 24 24 25 24 23 22 22
3 6 6 6 5 5 5 5 5 5 4 3 5 4 4 4 3 3 1 1 3 3 3 4 5 4 4 7 10 18 19 19 20 20 22 24 24 25 25 25 25 24 24
5 5 7 6 6 6 5 5 4 4 5 4 6 4 3 4 4 4 4 4 1 3 2 5 3 6 5 4 5 9 8 15 20 20 20 21 22 23 23 23 24 24 24
3 6 6 6 6 6 6 5 4 5 4 4 5 5 4 3 3 4 4 3 4 2 3 3 3 3 4 4 7 5 6 9 14 19 20 21 21 21 22 23 23 23 22
3 4 6 6 5 6 6 6 5 5 5 4 4 5 4 3 4 4 4 4 4 4 3 3 4 5 3 4 8 7 8 10 11 13 17 19 20 21 21 21 22 22 22
2 3 4 5 5 6 5 5 6 6 6 5 5 6 7 4 3 3 3 4 4 4 5 4 2 4 3 5 5 5 5 5 5 10 13 15 18 21 21 20 21 22 22
3 1 2 3 4 4 5 6 6 6 6 6 7 5 7 4 6 5 4 6 5 4 4 6 3 3 6 3 4 7 4 5 4 8 11 15 17 18 18 18 20 20 20
6 6 4 2 2 3 4 4 5 6 6 6 6 6 6 6 6 4 5 5 4 4 4 4 4 2 3 2 3 4 5 6 6 12 13 15 17 17 19 20 19 19 18
5 5 5 5 5 4 3 4 5 5 6 5 5 5 6 6 6 6 5 6 5 5 3 3 4 4 4 4 3 4 5 3 6 8 9 9 10 16 19 16 18 18 18
4 4 5 5 5 4 3 5 6 4 2 3 4 4 5 6 8 7 4 6 5 4 4 4 3 2 3 3 4 3 4 4 4 5 4 4 3 4 6 14 16 21 20
6 6 6 5 5 4 10 11 8 5 4 3 3 4 4 6 6 8 8 11 8 6 7 4 7 5 7 4 4 4 3 2 4 3 4 4 4 4 5 4 10 15 15
5 6 6 6 6 4 7 6 8 5 5 5 5 5 4 4 6 6 8 9 8 10 13 8 7 8 8 6 5 5 5 5 5 4 3 4 4 5 6 6 14 17 18
4 4 4 5 5 4 7 8 7 3 3 5 5 6 6 6 6 7 6 6 6 6 6 5 8 10 8 9 7 6 7 5 4 4 4 7 3 6 4 6 14 18 18
3 3 3 5 4 5 8 10 6 4 4 6 5 6 6 6 6 10 6 5 6 5 7 11 11 12 13 11 9 1 4 4 6 5 4 5 8 5 4 8 7 17 19
3 4 6 5 6 7 15 16 11 4 5 5 5 5 8 8 10 7 5 4 5 6 6 7 6 6 8 10 13 8 5 6 7 6 7 5 8 3 5 4 7 5 6
Wind_Direction
209 227 234 269 287 286 270 278 242 242 230 204 204 194 191 182 180 176 215 190 186 198 201 183 186 189 184 183 182 180 183 183 180 177 178 181 179 181 193 208 181 176 184
196 212 222 236 258 278 289 283 300 240 243 196 223 196 189 211 184 160 180 213 191 203 203 206 201 200 199 196 195 187 190 194 190 191 189 191 194 196 209 230 202 214 217
190 204 212 215 239 275 304 296 274 64 209 322 267 232 214 208 203 185 173 193 207 203 205 208 208 206 203 202 201 205 199 203 204 200 197 197 205 209 211 220 224 228 232
188 197 211 232 223 186 285 304 349 194 150 205 227 203 223 220 228 170 163 191 201 209 212 210 208 208 204 207 207 209 206 204 209 213 208 208 211 221 225 223 228 235 242
181 186 204 223 206 278 301 306 55 47 324 326 81 117 227 212 222 192 194 210 209 216 205 206 203 211 212 212 214 211 211 211 224 213 214 216 216 221 227 227 233 238 241
180 181 207 203 218 252 337 335 58 148 148 351 338 92 99 247 141 159 213 221 206 201 200 200 197 209 214 219 218 215 214 215 220 216 221 221 223 228 226 228 234 240 247
176 194 186 208 214 230 243 292 304 53 28 196 49 4 352 150 168 194 188 202 206 209 195 203 194 201 213 214 219 214 214 218 218 218 221 224 226 229 229 230 236 240 241
182 203 187 210 201 227 244 290 238 87 284 350 123 49 31 348 20 204 229 213 216 208 193 195 206 202 203 208 218 219 218 216 218 222 219 221 226 231 233 236 236 241 244
194 208 193 204 221 200 230 243 239 186 193 250 276 148 114 216 234 291 205 254 195 207 203 184 197 214 209 207 212 220 221 219 218 221 221 221 223 226 230 236 240 240 239
209 204 206 200 211 202 201 227 243 198 162 179 260 339 84 120 174 91 301 241 232 204 205 190 199 210 207 208 214 214 216 217 217 222 224 223 225 227 231 233 235 236 236
218 209 193 210 216 210 205 214 247 255 188 180 171 181 46 36 28 125 241 277 309 264 228 199 196 196 204 202 207 224 220 212 214 218 222 223 225 228 230 234 236 235 235
221 220 204 211 220 217 202 209 224 227 226 193 177 188 169 165 198 175 210 240 235 240 268 240 204 199 205 203 206 211 216 226 221 221 225 228 230 231 234 236 234 236 239
212 222 206 206 214 218 211 207 221 234 236 204 185 203 209 202 148 170 153 216 226 270 258 210 229 228 219 215 214 210 213 213 228 234 228 226 230 232 235 237 238 236 238
211 195 203 206 209 210 211 210 226 235 222 221 232 218 223 215 176 177 175 152 265 272 299 240 194 206 224 232 219 200 207 205 210 222 230 234 230 229 233 236 238 241 242
217 213 200 198 202 204 206 205 208 220 228 237 238 234 220 243 209 190 191 174 168 257 274 274 264 230 208 213 221 220 221 200 206 212 224 229 230 231 228 233 236 240 240
218 197 190 197 209 217 214 198 208 220 218 234 243 250 251 235 224 210 219 211 198 182 244 218 247 228 228 218 226 226 233 224 210 208 211 218 226 230 229 229 231 234 237
120 173 194 197 208 216 228 217 224 227 221 233 243 231 245 231 252 232 211 215 224 191 232 285 245 253 261 231 252 236 232 229 241 218 215 215 224 227 229 227 230 231 231
33 89 170 193 205 213 220 210 222 225 215 228 243 240 244 231 238 234 197 221 224 202 194 253 253 249 231 250 266 296 283 256 264 254 241 236 232 229 228 230 232 230 229
41 32 35 359 286 263 259 248 228 233 234 227 222 227 242 245 251 244 248 240 223 216 199 208 254 250 259 237 291 259 259 259 249 260 253 240 239 236 230 230 232 231 229
45 33 28 24 20 350 319 294 264 246 240 243 241 230 234 236 241 240 242 246 251 249 210 210 234 244 239 238 212 255 291 241 273 270 257 236 235 234 240 237 233 229 227
24 22 17 11 8 11 39 23 23 11 315 293 290 280 263 254 244 240 229 258 232 246 256 243 235 240 228 231 220 225 236 266 274 237 239 233 217 227 241 235 244 239 231
15 21 13 5 358 348 19 19 6 341 329 320 305 310 312 307 295 280 262 254 239 242 248 245 261 224 247 229 208 221 232 247 287 224 206 267 177 246 249 223 233 244 232
22 19 16 22 22 50 30 26 17 12 338 315 299 293 296 283 297 291 287 281 274 241 237 244 247 249 262 217 233 248 227 211 230 245 191 259 183 236 235 231 226 235 231
16 10 10 353 345 330 343 356 356 352 333 314 303 291 278 282 282 276 297 306 296 287 264 238 231 250 247 262 205 225 242 255 270 260 190 254 201 243 237 236 229 231 229
336 332 316 328 335 319 343 23 31 15 349 333 310 297 288 288 349 39 13 351 330 303 290 275 260 256 253 244 244 189 241 242 271 263 217 246 262 257 239 254 241 227 227
326 336 321 311 295 49 38 31 17 28 11 353 333 334 355 55 2 13 351 311 300 281 292 300 303 290 257 264 242 206 227 238 244 268 232 225 258 212 278 244 245 228 219